When you browse on this site, cookies collect data to enhance your experience and personalize the content and advertising you see.
Visit our Privacy Policy to learn more. By continuing to use the site, you agree to this use of cookies and data.

Hourly Weather Annaba

Today, 25 September, Friday

Time Temperature Precipitation Wind Pressure Humidity
00:00 +27°C° 0 mm 1 mps 759 mmHg 56%
01:00 +27°C° 0 mm 2 mps 759 mmHg 56%
02:00 +27°C° 0 mm 2 mps 759 mmHg 56%
03:00 +26°C° 0 mm 2 mps 758 mmHg 55%
04:00 +26°C° 0 mm 2 mps 758 mmHg 55%
05:00 +27°C° 0 mm 3 mps 758 mmHg 54%
06:00 +27°C° 0 mm 3 mps 758 mmHg 53%
07:00 +27°C° 0 mm 3 mps 757 mmHg 50%
08:00 +28°C° 0 mm 4 mps 757 mmHg 49%
09:00 +30°C° 0 mm 5 mps 757 mmHg 48%
10:00 +32°C° 0 mm 6 mps 757 mmHg 47%
11:00 +32°C° 0 mm 7 mps 757 mmHg 50%
12:00 +32°C° 0 mm 7 mps 757 mmHg 53%
13:00 +32°C° 0 mm 7 mps 756 mmHg 57%
14:00 +31°C° 0 mm 8 mps 756 mmHg 56%
15:00 +29°C° 0 mm 10 mps 756 mmHg 55%
16:00 +28°C° 0 mm 11 mps 756 mmHg 54%
17:00 +27°C° 0 mm 10 mps 757 mmHg 59%
18:00 +26°C° 0 mm 10 mps 757 mmHg 63%
19:00 +23°C° 0 mm 9 mps 758 mmHg 68%
20:00 +23°C° 0 mm 10 mps 758 mmHg 63%
21:00 +23°C° 0 mm 10 mps 758 mmHg 59%
22:00 +22°C° 0 mm 11 mps 759 mmHg 54%
23:00 +22°C° 0 mm 11 mps 759 mmHg 55%

Tomorrow, 26 September, Saturday

Time Temperature Precipitation Wind Pressure Humidity
00:00 +22°C° 0 mm 11 mps 758 mmHg 56%
01:00 +21°C° 0 mm 11 mps 758 mmHg 56%
02:00 +21°C° 0 mm 11 mps 758 mmHg 57%
03:00 +21°C° 0 mm 11 mps 758 mmHg 58%
04:00 +21°C° 0 mm 11 mps 757 mmHg 59%
05:00 +21°C° 0.1 mm 11 mps 757 mmHg 59%
06:00 +19°C° 0.1 mm 10 mps 757 mmHg 59%
07:00 +19°C° 0.1 mm 10 mps 758 mmHg 60%
08:00 +21°C° 0.4 mm 9 mps 758 mmHg 61%
09:00 +21°C° 0.4 mm 9 mps 758 mmHg 61%
10:00 +21°C° 0.4 mm 8 mps 759 mmHg 62%
11:00 +21°C° 0.3 mm 8 mps 758 mmHg 62%
12:00 +21°C° 0.3 mm 7 mps 758 mmHg 62%
13:00 +21°C° 0.3 mm 6 mps 758 mmHg 62%
14:00 +21°C° 0.2 mm 6 mps 758 mmHg 63%
15:00 +21°C° 0.2 mm 6 mps 758 mmHg 65%
16:00 +21°C° 0.2 mm 6 mps 758 mmHg 66%
17:00 +20°C° 0.3 mm 6 mps 757 mmHg 67%
18:00 +20°C° 0.3 mm 7 mps 757 mmHg 68%
19:00 +20°C° 0.3 mm 7 mps 757 mmHg 68%
20:00 +20°C° 0.3 mm 7 mps 758 mmHg 68%
21:00 +20°C° 0.3 mm 7 mps 758 mmHg 69%
22:00 +18°C° 0.3 mm 7 mps 758 mmHg 69%
23:00 +18°C° 0.2 mm 7 mps 757 mmHg 68%

Day after tomorrow, 27 September, Sunday

Time Temperature Precipitation Wind Pressure Humidity
00:00 +19°C° 0.2 mm 6 mps 757 mmHg 68%
01:00 +17°C° 0.2 mm 6 mps 756 mmHg 67%
02:00 +17°C° 0.1 mm 6 mps 756 mmHg 66%
03:00 +17°C° 0.1 mm 5 mps 755 mmHg 66%
04:00 +17°C° 0.1 mm 5 mps 755 mmHg 65%
05:00 +17°C° 0 mm 5 mps 755 mmHg 64%
06:00 +18°C° 0 mm 4 mps 754 mmHg 63%
07:00 +18°C° 0 mm 4 mps 754 mmHg 62%
08:00 +20°C° 0 mm 5 mps 754 mmHg 55%
09:00 +22°C° 0 mm 5 mps 754 mmHg 49%
10:00 +24°C° 0 mm 6 mps 754 mmHg 42%
11:00 +23°C° 1 mm 7 mps 754 mmHg 51%
12:00 +23°C° 1 mm 8 mps 755 mmHg 59%
13:00 +22°C° 1 mm 9 mps 755 mmHg 67%
14:00 +22°C° 0.7 mm 8 mps 755 mmHg 66%
15:00 +22°C° 0.7 mm 7 mps 756 mmHg 66%
16:00 +21°C° 0.7 mm 6 mps 756 mmHg 65%
17:00 +21°C° 0 mm 6 mps 756 mmHg 67%
18:00 +20°C° 0 mm 5 mps 757 mmHg 68%
19:00 +19°C° 0 mm 5 mps 758 mmHg 69%
20:00 +19°C° 0 mm 5 mps 758 mmHg 69%
21:00 +18°C° 0 mm 4 mps 759 mmHg 69%
22:00 +18°C° 0 mm 3 mps 759 mmHg 68%
23:00 +18°C° 0 mm 3 mps 759 mmHg 69%

28 September, Monday

Time Temperature Precipitation Wind Pressure Humidity
00:00 +18°C° 0 mm 3 mps 759 mmHg 70%
01:00 +17°C° 0 mm 2 mps 759 mmHg 71%
02:00 +17°C° 0 mm 2 mps 758 mmHg 72%
03:00 +17°C° 0 mm 2 mps 758 mmHg 72%
04:00 +17°C° 0 mm 2 mps 758 mmHg 73%
05:00 +17°C° 0 mm 2 mps 758 mmHg 73%
06:00 +17°C° 0 mm 3 mps 759 mmHg 74%
07:00 +17°C° 0 mm 3 mps 759 mmHg 74%
08:00 +19°C° 0 mm 3 mps 760 mmHg 68%
09:00 +20°C° 0 mm 3 mps 760 mmHg 62%
10:00 +22°C° 0 mm 3 mps 760 mmHg 55%
11:00 +23°C° 0 mm 4 mps 760 mmHg 52%
12:00 +25°C° 0 mm 4 mps 760 mmHg 49%
13:00 +26°C° 0 mm 5 mps 760 mmHg 46%
14:00 +25°C° 0 mm 4 mps 760 mmHg 51%
15:00 +25°C° 0 mm 4 mps 760 mmHg 56%
16:00 +23°C° 0 mm 4 mps 761 mmHg 61%
17:00 +22°C° 0 mm 3 mps 761 mmHg 65%
18:00 +21°C° 0 mm 2 mps 761 mmHg 69%
19:00 +21°C° 0 mm 1 mps 762 mmHg 73%
20:00 +21°C° 0 mm 1 mps 762 mmHg 74%
21:00 +21°C° 0 mm 1 mps 763 mmHg 75%
22:00 +20°C° 0 mm 2 mps 763 mmHg 76%
23:00 +20°C° 0 mm 2 mps 763 mmHg 75%

29 September, Tuesday

Time Temperature Precipitation Wind Pressure Humidity
00:00 +20°C° 0 mm 1 mps 763 mmHg 75%
01:00 +20°C° 0 mm 1 mps 763 mmHg 75%
02:00 +20°C° 0 mm 1 mps 763 mmHg 75%
03:00 +20°C° 0 mm 1 mps 763 mmHg 75%
04:00 +20°C° 0 mm 1 mps 762 mmHg 75%
05:00 +20°C° 0 mm 1 mps 763 mmHg 74%
06:00 +20°C° 0 mm 1 mps 763 mmHg 73%
07:00 +20°C° 0 mm 1 mps 763 mmHg 72%
08:00 +22°C° 0 mm 1 mps 763 mmHg 64%
09:00 +24°C° 0 mm 1 mps 763 mmHg 56%
10:00 +26°C° 0 mm 1 mps 763 mmHg 48%
11:00 +27°C° 0 mm 2 mps 762 mmHg 45%
12:00 +28°C° 0 mm 2 mps 762 mmHg 42%
13:00 +30°C° 0 mm 3 mps 762 mmHg 38%
14:00 +29°C° 0 mm 4 mps 761 mmHg 42%
15:00 +29°C° 0 mm 4 mps 761 mmHg 45%
16:00 +28°C° 0 mm 5 mps 761 mmHg 48%
17:00 +27°C° 0 mm 4 mps 761 mmHg 54%
18:00 +25°C° 0 mm 4 mps 761 mmHg 61%
19:00 +23°C° 0 mm 4 mps 761 mmHg 68%
20:00 +24°C° 0 mm 3 mps 761 mmHg 69%
21:00 +22°C° 0 mm 3 mps 761 mmHg 69%
22:00 +23°C° 0 mm 2 mps 761 mmHg 70%
23:00 +23°C° 0 mm 2 mps 760 mmHg 68%

30 September, Wednesday

Time Temperature Precipitation Wind Pressure Humidity
00:00 +23°C° 0 mm 2 mps 760 mmHg 66%
01:00 +23°C° 0 mm 2 mps 760 mmHg 63%
02:00 +23°C° 0 mm 1 mps 759 mmHg 61%
03:00 +23°C° 0 mm 1 mps 759 mmHg 59%
04:00 +23°C° 0 mm 1 mps 758 mmHg 57%
05:00 +23°C° 0 mm 1 mps 758 mmHg 59%
06:00 +23°C° 0 mm 1 mps 758 mmHg 60%
07:00 +23°C° 0 mm 1 mps 758 mmHg 61%
08:00 +24°C° 0 mm 1 mps 758 mmHg 57%
09:00 +26°C° 0 mm 1 mps 758 mmHg 53%
10:00 +28°C° 0 mm 1 mps 758 mmHg 50%
11:00 +28°C° 0 mm 2 mps 758 mmHg 50%
12:00 +29°C° 0 mm 3 mps 758 mmHg 50%
13:00 +30°C° 0 mm 3 mps 758 mmHg 50%
14:00 +29°C° 0 mm 3 mps 758 mmHg 54%
15:00 +28°C° 0 mm 3 mps 758 mmHg 57%
16:00 +27°C° 0 mm 3 mps 757 mmHg 61%
17:00 +26°C° 0 mm 3 mps 758 mmHg 65%
18:00 +25°C° 0 mm 2 mps 758 mmHg 69%
19:00 +24°C° 0 mm 2 mps 758 mmHg 73%
20:00 +24°C° 0 mm 2 mps 758 mmHg 74%
21:00 +23°C° 0 mm 1 mps 758 mmHg 75%
22:00 +23°C° 0 mm 1 mps 759 mmHg 76%
23:00 +23°C° 0 mm 1 mps 758 mmHg 77%
Show more